TimeSAST,TemperatureF,Dew PointF,Humidity,Sea Level PressureIn,VisibilityMPH,Wind Direction,Wind SpeedMPH,Gust SpeedMPH,PrecipitationIn,Events,Conditions,WindDirDegrees,DateUTC
12:00 AM,62.6,57.2,82,30.12,-9999.0,NNE,5.8,-,N/A,,Clear,30,2014-08-12 22:00:00
1:00 AM,60.8,57.2,88,30.12,5.6,NE,3.5,-,N/A,,Unknown,40,2014-08-12 23:00:00
2:00 AM,60,56,82,30.12,6,NNW,3.5,,,,Haze,340,2014-08-13 00:00:00
2:00 AM,59.0,55.4,88,30.09,5.6,NNE,2.3,-,N/A,,Unknown,20,2014-08-13 00:00:00
3:00 AM,55.4,51.8,88,30.09,5.6,Calm,Calm,-,N/A,,Unknown,0,2014-08-13 01:00:00
4:00 AM,51.8,48.2,88,30.09,5.6,Variable,1.2,-,N/A,,Unknown,0,2014-08-13 02:00:00
5:00 AM,55,52,85,30.10,2,North,3.5,,,,Mist,350,2014-08-13 03:00:00
5:00 AM,55.4,51.8,88,30.09,1.9,Variable,1.2,-,N/A,,Mist,0,2014-08-13 03:00:00
6:00 AM,51.8,50.0,94,30.09,5.0,Variable,1.2,-,N/A,,Unknown,0,2014-08-13 04:00:00
8:00 AM,60,54,73,30.12,4,Calm,Calm,,,,Haze,,2014-08-13 06:00:00
8:00 AM,60.8,55.4,82,30.09,4.3,Variable,1.2,-,N/A,,Unknown,0,2014-08-13 06:00:00
9:00 AM,64.4,53.6,68,30.09,5.6,NE,3.5,-,N/A,,Unknown,40,2014-08-13 07:00:00
10:00 AM,71.6,51.8,50,30.09,-9999.0,NNE,5.8,-,N/A,,Clear,30,2014-08-13 08:00:00
11:00 AM,76,54,36,30.10,9,NE,3.5,,,,Haze,40,2014-08-13 09:00:00
11:00 AM,75.2,57.2,53,30.09,-9999.0,ENE,8.1,-,N/A,,Clear,70,2014-08-13 09:00:00
12:00 PM,77.0,59.0,54,30.06,-9999.0,ENE,10.4,-,N/A,,Clear,70,2014-08-13 10:00:00
1:00 PM,77.0,57.2,50,30.01,-9999.0,ENE,15.0,-,N/A,,Clear,70,2014-08-13 11:00:00
2:00 PM,74,59,50,29.99,9,ENE,18.4,,,,Haze,60,2014-08-13 12:00:00
2:00 PM,75.2,60.8,61,29.98,-9999.0,ENE,19.6,-,N/A,,Clear,70,2014-08-13 12:00:00
4:00 PM,73.4,62.6,69,29.98,-9999.0,NE,20.7,-,N/A,,Clear,50,2014-08-13 14:00:00
5:00 PM,71,62,64,29.98,9,NE,13.8,,,,Haze,40,2014-08-13 15:00:00
5:00 PM,71.6,62.6,73,29.98,-9999.0,NE,20.7,-,N/A,,Clear,50,2014-08-13 15:00:00
6:00 PM,69.8,62.6,78,29.98,5.6,NE,16.1,-,N/A,,Unknown,40,2014-08-13 16:00:00
7:00 PM,69.8,62.6,78,29.98,-9999.0,NE,20.7,-,N/A,,Clear,50,2014-08-13 17:00:00
8:00 PM,68,61,73,29.99,6,NNE,9.2,,,,Haze,30,2014-08-13 18:00:00
8:00 PM,68.0,60.8,78,29.98,-9999.0,NE,8.1,-,N/A,,Clear,40,2014-08-13 18:00:00
9:00 PM,66.2,57.2,73,30.01,-9999.0,NE,6.9,-,N/A,,Clear,40,2014-08-13 19:00:00
10:00 PM,64.4,57.2,77,30.01,-9999.0,NNE,5.8,-,N/A,,Clear,20,2014-08-13 20:00:00
11:00 PM,63,56,70,30.00,,NE,2.3,,,,,40,2014-08-13 21:00:00
11:00 PM,59.0,53.6,82,29.98,-9999.0,Variable,2.3,-,N/A,,Clear,0,2014-08-13 21:00:00